#timestamp,LO_Frequency,Hit,StdDev 
1458601215.2,286047001.5,N
1458601235.0,286047003.6,N
1458601236.0,286047003.6,N
1458601255.8,286047004.1,N
1458601275.6,286047001.3,N
1458601295.4,286047004.2,N
1458601315.3,286047002.1,N
1458601335.1,286047004.0,N
1458601355.8,286046999.8,N
1458601375.7,286047003.7,N
1458601395.5,286047006.2,Y
1458601415.3,286047003.3,P
1458601435.2,286047004.3,P
1458601455.9,286047002.0,P
1458601475.7,286047000.3,N
1458601495.6,286047002.5,N
1458601515.4,286046999.8,N
1458601535.2,286047001.1,N
1458601555.1,286047001.9,N
1458601556.0,286047001.9,N
1458601575.8,286047006.2,Y
1458601595.6,286047001.5,P
1458601615.5,286047002.3,P
1458601635.3,286047003.8,P
1458601655.1,286047003.1,Y
1458601675.9,286047000.2,P
1458601695.7,286047001.1,N
1458601715.5,286046999.9,N
1458601735.4,286046999.0,N
1458601755.2,286046997.4,N
1458601775.0,286047000.0,N
1458601775.9,286047000.0,N
1458601795.7,286047002.2,N
1458601815.6,286047001.1,N
1458601835.4,286047001.2,N
1458601855.2,286047001.9,N
1458601875.1,286047001.8,N
1458601876.0,286047001.8,N
1458601895.8,286047001.3,N
1458601915.6,286047001.7,N
1458601935.5,286047001.3,N
1458601955.3,286047003.3,N
1458601975.1,286047003.1,N
1458601995.9,286047005.4,Y
1458602015.7,286047005.7,P
1458602035.5,286047005.5,N
1458602055.4,286047008.6,P
1458602075.2,286047008.2,Y
1458602095.0,286047000.7,P
1458602095.9,286047000.7,N
1458602115.8,286047002.3,N
1458602135.6,286046995.4,N
1458602155.4,286046999.5,N
1458602175.3,286046999.1,N
1458602195.1,286046996.9,N
1458602196.0,286046996.9,N
1458602215.8,286046997.5,N
1458602235.7,286046995.5,N
1458602255.5,286046996.0,N
1458602275.3,286046993.5,N
1458602295.2,286046992.4,N
1458602315.9,286046992.1,N
1458602335.7,286046994.8,N
1458602355.5,286046992.1,N
1458602375.4,286046996.2,N
1458602395.2,286046996.4,N
1458602415.0,286046992.4,N
1458602415.9,286046992.4,N
1458602435.8,286046991.2,N
1458602455.6,286046990.7,N
1458602475.4,286046990.7,N
1458602495.3,286046994.2,N
1458602515.1,286046993.1,N
1458602516.0,286046993.1,N
1458602535.8,286046989.5,N
1458602555.7,286046987.4,Y
1458602575.5,286046992.6,P
1458602595.3,286046989.2,P
1458602615.2,286046990.2,P
1458602635.9,286046990.3,Y
1458602655.7,286046997.3,P
1458602675.6,286046996.5,N
1458602695.4,286046997.1,N
1458602715.2,286046998.5,N
1458602735.1,286046999.5,N
1458602736.0,286046999.5,N
1458602755.8,286046996.2,N
1458602775.6,286046991.7,Y
1458602795.5,286046996.5,P
1458602815.3,286046996.6,P
1458602835.1,286046999.5,N
1458602855.9,286046997.6,N
1458602875.7,286046995.2,Y
1458602895.5,286046993.7,P
1458602915.4,286046993.9,P
1458602935.2,286046999.4,N
1458602955.0,286047000.8,N
1458602955.9,286047000.8,N
1458602975.7,286046998.5,N
1458602995.6,286046996.5,N
1458603015.4,286046998.7,N
1458603035.2,286046997.1,N
1458603055.1,286046997.8,N
1458603056.0,286046997.8,N
1458603075.8,286046997.5,N
1458603095.6,286046994.6,N
1458603115.5,286046993.8,N
1458603135.3,286046992.6,Y
1458603155.1,286046995.6,P
1458603175.9,286046994.5,P
1458603195.7,286046993.6,P
1458603215.5,286046997.3,N
1458603235.4,286046995.0,Y
1458603255.2,286047002.6,P
1458603275.0,286047000.9,N
1458603275.9,286047000.9,N
1458603295.8,286047001.2,N
1458603315.6,286047002.5,N
1458603335.4,286046999.8,N
1458603355.3,286046998.2,N
1458603375.1,286046999.2,N
1458603376.0,286046999.2,N
1458603395.8,286046999.5,N
1458603415.7,286046999.6,N
1458603435.5,286046999.5,N
1458603455.3,286046995.2,N
1458603475.1,286046994.8,N
1458603495.9,286046995.3,N
1458603515.7,286046998.7,N
1458603535.5,286046999.8,N
1458603555.4,286046998.3,N
1458603575.2,286046996.8,N
1458603595.0,286046997.0,N
1458603595.9,286046997.0,N
1458603615.8,286046998.8,N
1458603635.6,286046996.6,N
1458603655.4,286046997.7,N
1458603675.3,286047001.2,N
1458603695.1,286047004.3,N
1458603696.0,286047004.3,N
1458603715.8,286047007.2,N
1458603735.7,286047003.6,N
1458603755.5,286047003.9,N
1458603775.3,286047005.6,N
1458603795.2,286047005.3,N
1458603815.9,286047006.0,N
1458603835.7,286047003.1,N
1458603855.5,286047006.3,N
1458603875.4,286047007.2,N
1458603895.2,286047004.5,N
1458603915.0,286047007.6,N
1458603915.9,286047007.6,N
1458603935.8,286047006.8,N
1458603955.6,286047010.6,N
1458603975.4,286047009.8,N
1458603995.3,286047012.1,N
1458604015.1,286047011.3,N
1458604035.8,286047007.4,N
1458604055.7,286047007.4,N
1458604075.5,286047004.7,N
1458604095.3,286047003.6,N
1458604115.2,286047003.6,N
1458604135.9,286047002.7,N
1458604155.7,286047005.7,N
1458604175.6,286047005.5,N
1458604195.4,286047003.3,N
1458604215.2,286047005.2,N
1458604235.0,286047005.7,N
1458604236.0,286047005.7,N
1458604255.8,286047003.9,N
1458604275.6,286047004.1,N
1458604295.4,286047002.7,N
1458604315.3,286046999.9,N
1458604335.1,286046998.8,N
1458604355.8,286046997.0,N
1458604375.7,286046998.1,N
1458604395.5,286047002.5,N
1458604415.3,286047002.4,N
1458604435.2,286047002.4,N
1458604455.0,286046998.8,N
1458604455.9,286046998.8,N
1458604475.7,286046995.8,N
1458604495.6,286046995.4,N
1458604515.4,286046996.6,N
1458604535.2,286046999.5,N
1458604555.1,286046999.5,N
1458604556.0,286046999.5,N
1458604575.8,286046998.7,N
1458604595.6,286046994.9,N
1458604615.5,286046996.1,N
1458604635.3,286046997.7,N
1458604655.1,286046998.0,N
1458604675.9,286046995.3,N
1458604695.7,286046995.0,N
1458604715.5,286046994.5,N
1458604735.4,286046994.5,N
1458604755.2,286046995.0,N
1458604775.0,286046994.7,N
1458604775.9,286046994.7,N
1458604795.8,286046994.6,N
